Location: Unspecified
(41.1850°N, 73.2650°W)
Time: 04:37:21
(UTC+00:00)

COSMO-SKYMED 1 - Pass Details

Date: 14 December 2025
Orbit: 578 x 580 km, 97.9° (Epoch: 13 January)

Event Time Altitude Azimuth Distance (km) Brightness Sun altitude
Exits shadow 22:55:16 28° 45° (NE) 1,112 3.4 -16.4°
Maximum altitude 22:57:01 44° 99° (E) 809 2.7 -16.7°
Drops below altitude 10° 23:00:55 10° 172° (S) 1,884 5.1 -17.4°
Sets 23:03:08 0° 179° (S) 2,778 6.1 -17.8°
